Home   Weather   Santander   Past weeks

Flag for Spain Past Weather in Santander, Spain — Yesterday and Last 2 Weeks

Now
48 °F

Passing clouds.


Feels Like: 48 °F
Forecast: 42 / 56 °F
Wind: 1 mph from North

Location: Santander / Parayas

Current Time: Apr 27, 2017 at 10:48:36 pm

Latest Report: Apr 27, 2017 at 10:00 pm


Visibility: N/A

Pressure: 30.18 "Hg

Humidity: 71%

Dew Point: 39 °F

Location of SantanderLocation

Past Weather in Santander — Graph

°F

Santander Temperature Yesterday

Maximum temperature yesterday: 50 °F (at 12:00 am)
Minimum temperature yesterday: 45 °F (at 8:30 am)
Average temperature yesterday: 47 °F

High & Low Weather Summary for the Past Weeks

 TemperatureHumidityPressure
High68 °F (Apr 21, 3:30 pm)100% (Apr 13, 4:30 am)30.33 "Hg (Apr 13, 4:30 am)
Low41 °F (Apr 21, 6:30 am)41% (Apr 19, 7:00 pm)29.80 "Hg (Apr 25, 7:00 am)
Average54 °F77%30.14 "Hg
* Reported Apr 12 9:00 pm — Apr 27 9:00 pm, Santander, Weather by CustomWeather, © 2017

Note: Actual official high and low records may vary slightly from our data, if they occured in-between our weather recording intervals... More about our weather records

Advertising

Santander Weather History for the Previous 24 Hours

Scroll right to see more
 ConditionsComfort  
Time TempWeatherWind HumidityBarometerVisibility
9:00 pm
Thu, Apr 27
50 °FScattered clouds.1 mph58%30.18 "HgN/A
8:30 pm50 °FPassing clouds.3 mph62%30.18 "HgN/A
8:00 pm50 °FPassing clouds.3 mph62%30.18 "HgN/A
7:30 pm50 °FPassing clouds.3 mph62%30.18 "HgN/A
7:00 pm52 °FPassing clouds.5 mph58%30.15 "HgN/A
6:30 pm50 °FPassing clouds.5 mph62%30.15 "HgN/A
6:00 pm52 °FPassing clouds.6 mph58%30.15 "HgN/A
5:30 pm52 °FPassing clouds.6 mph62%30.15 "HgN/A
5:00 pm52 °FPassing clouds.6 mph58%30.15 "HgN/A
4:30 pm52 °FPassing clouds.2 mph62%30.15 "HgN/A
4:00 pm50 °FPassing clouds.3 mph67%30.15 "HgN/A
3:30 pm52 °FPassing clouds.1 mph72%30.15 "HgN/A
3:00 pm48 °FPassing clouds.2 mph76%30.15 "HgN/A
2:30 pm46 °FScattered clouds.3 mph87%30.15 "HgN/A
2:00 pm45 °FPartly sunny.1 mph87%30.15 "HgN/A
1:43 pm45 °FSprinkles. Partly sunny.2 mph87%30.15 "HgN/A
1:30 pm43 °FRain showers. Partly sunny.18 mph87%30.15 "Hg2 mi
12:30 pm50 °FPassing clouds.2 mph71%30.15 "HgN/A
12:00 pm48 °FPassing clouds.3 mph76%30.15 "HgN/A
11:30 am46 °FPartly sunny.6 mph82%30.15 "HgN/A
11:00 am46 °FBroken clouds.1 mph82%30.12 "HgN/A
10:30 am46 °FBroken clouds.12 mph82%30.12 "HgN/A
10:00 am45 °FScattered clouds.9 mph81%30.12 "HgN/A
9:30 am45 °FScattered clouds.6 mph81%30.12 "HgN/A
9:00 am43 °FScattered clouds.7 mph87%30.12 "HgN/A
8:30 am43 °FBroken clouds.10 mph87%30.12 "HgN/A
8:00 am43 °FBroken clouds.6 mph87%30.09 "HgN/A
7:30 am43 °FPartly sunny.7 mph81%30.07 "HgN/A
7:00 am43 °FLight rain. Partly cloudy.9 mph87%30.09 "HgN/A
6:30 am43 °FLight rain. Partly cloudy.14 mph87%30.09 "Hg5 mi
5:30 am43 °FPassing clouds.7 mph81%30.07 "HgN/A
4:30 am41 °FQuite cool.7 mph87%30.07 "Hg5 mi
3:30 am43 °FPassing clouds.3 mph81%30.07 "Hg4 mi
3:00 am43 °FPassing clouds.6 mph81%30.07 "Hg4 mi
2:30 am41 °FPassing clouds.1 mph87%30.09 "Hg4 mi
2:00 am41 °FQuite cool.2 mph87%30.09 "Hg4 mi
1:30 am41 °FQuite cool.1 mph87%30.09 "Hg4 mi
12:30 am43 °FQuite cool.1 mph81%30.09 "Hg4 mi
11:30 pm
Wed, Apr 26
45 °FQuite cool.5 mph81%30.09 "Hg4 mi
11:00 pm45 °FPassing clouds.2 mph81%30.09 "HgN/A
10:30 pm46 °FPassing clouds.2 mph76%30.09 "HgN/A
10:00 pm45 °FPassing clouds.3 mph81%30.09 "HgN/A
Weather by CustomWeather, © 2017

See weather overviewHow to use our weather pages